{"data":{"norad_id":52665,"intl_designator":"2022-053K","name":"STARLINK-4064","alt_names":[],"object_type":"PAYLOAD","status":"ACTIVE","operator":null,"country":"US","launch_date":"2022-05-18","launch_site_code":"AFETR","launch_vehicle":null,"mission":null,"orbit_class":"UNKNOWN","rcs_meters":null,"size_class":null,"mass_kg":null,"dimensions":null,"purposes":["comms"],"wikipedia_slug":null,"has_3d_model":false,"image_url":null,"decayed_at":null,"tle_current":{"epoch":"2026-09-19T22:39:14.064192Z","epoch_age_seconds":114501,"freshness":"FRESH","line1":"1 52665U 22053K   26262.94391278  .00000525  00000+0  51094-4 0  9991","line2":"2 52665  53.1620   1.4195 0000942  84.9212 275.1887 15.08839222240378","mean_motion":15.08839222,"eccentricity":9.42e-5,"inclination_deg":53.162,"raan_deg":1.4195,"arg_perigee_deg":84.9212,"mean_anomaly_deg":275.1887,"bstar":5.1094e-5,"rev_number":24037,"period_min":95.437603888057,"perigee_km":539.09410244323,"apogee_km":540.39743155653,"semimajor_km":6917.8827669999,"source":"CELESTRAK","updated_at":"2026-09-20T09:00:40.101892Z"}}}